Météo par heure à Abaeté

Ce jour, 14 Avril, Mercredi

Heure Température Précipitation Vent Pression Humidité
00:00 +21°C° 0 mm 1 m/s 707 mmHg 71%
01:00 +20°C° 0 mm 1 m/s 707 mmHg 75%
02:00 +20°C° 0 mm 1 m/s 706 mmHg 78%
03:00 +19°C° 0 mm 1 m/s 706 mmHg 82%
04:00 +19°C° 0 mm 1 m/s 706 mmHg 84%
05:00 +19°C° 0 mm 1 m/s 706 mmHg 86%
06:00 +19°C° 0 mm 1 m/s 707 mmHg 88%
07:00 +21°C° 0 mm 1 m/s 707 mmHg 80%
08:00 +23°C° 0 mm 2 m/s 708 mmHg 72%
09:00 +25°C° 0 mm 2 m/s 709 mmHg 64%
10:00 +26°C° 0 mm 2 m/s 709 mmHg 59%
11:00 +28°C° 0 mm 2 m/s 708 mmHg 54%
12:00 +29°C° 0 mm 2 m/s 708 mmHg 49%
13:00 +29°C° 0 mm 2 m/s 708 mmHg 49%
14:00 +29°C° 0 mm 2 m/s 707 mmHg 48%
15:00 +29°C° 0 mm 2 m/s 706 mmHg 48%
16:00 +28°C° 0 mm 2 m/s 706 mmHg 55%
17:00 +26°C° 0 mm 2 m/s 706 mmHg 62%
18:00 +24°C° 0 mm 2 m/s 706 mmHg 69%
19:00 +24°C° 0 mm 2 m/s 707 mmHg 71%
20:00 +23°C° 0 mm 2 m/s 707 mmHg 72%
21:00 +23°C° 0 mm 1 m/s 707 mmHg 74%
22:00 +21°C° 0 mm 2 m/s 707 mmHg 76%
23:00 +20°C° 0 mm 2 m/s 707 mmHg 79%

Demain, 15 Avril, Jeudi

Heure Température Précipitation Vent Pression Humidité
00:00 +20°C° 0 mm 2 m/s 707 mmHg 82%
01:00 +19°C° 0 mm 2 m/s 707 mmHg 84%
02:00 +18°C° 0 mm 2 m/s 707 mmHg 86%
03:00 +19°C° 0 mm 1 m/s 706 mmHg 88%
04:00 +17°C° 0 mm 2 m/s 707 mmHg 89%
05:00 +17°C° 0 mm 2 m/s 707 mmHg 90%
06:00 +17°C° 0 mm 2 m/s 707 mmHg 91%
07:00 +19°C° 0 mm 2 m/s 708 mmHg 82%
08:00 +21°C° 0 mm 2 m/s 708 mmHg 74%
09:00 +24°C° 0 mm 2 m/s 709 mmHg 65%
10:00 +26°C° 0 mm 2 m/s 709 mmHg 59%
11:00 +28°C° 0 mm 2 m/s 708 mmHg 52%
12:00 +30°C° 0 mm 1 m/s 708 mmHg 46%
13:00 +30°C° 0 mm 1 m/s 707 mmHg 44%
14:00 +31°C° 0 mm 1 m/s 707 mmHg 41%
15:00 +31°C° 0 mm 1 m/s 706 mmHg 39%
16:00 +29°C° 0 mm 1 m/s 706 mmHg 45%
17:00 +28°C° 0 mm 2 m/s 706 mmHg 51%
18:00 +26°C° 0 mm 2 m/s 706 mmHg 57%
19:00 +25°C° 0 mm 2 m/s 706 mmHg 59%
20:00 +24°C° 0 mm 2 m/s 707 mmHg 62%
21:00 +23°C° 0 mm 1 m/s 707 mmHg 64%
22:00 +22°C° 0 mm 1 m/s 707 mmHg 66%
23:00 +20°C° 0 mm 2 m/s 707 mmHg 68%

Après-demain, 16 Avril, Vendredi

Heure Température Précipitation Vent Pression Humidité
00:00 +19°C° 0 mm 2 m/s 707 mmHg 70%
01:00 +19°C° 0 mm 2 m/s 707 mmHg 74%
02:00 +19°C° 0 mm 1 m/s 706 mmHg 77%
03:00 +18°C° 0 mm 1 m/s 706 mmHg 80%
04:00 +18°C° 0 mm 1 m/s 706 mmHg 82%
05:00 +18°C° 0 mm 1 m/s 707 mmHg 84%
06:00 +16°C° 0 mm 1 m/s 707 mmHg 86%
07:00 +19°C° 0 mm 1 m/s 708 mmHg 77%
08:00 +22°C° 0 mm 1 m/s 708 mmHg 69%
09:00 +24°C° 0 mm 2 m/s 709 mmHg 61%
10:00 +26°C° 0 mm 1 m/s 709 mmHg 55%
11:00 +27°C° 0 mm 1 m/s 708 mmHg 49%
12:00 +29°C° 0 mm 1 m/s 708 mmHg 43%
13:00 +30°C° 0 mm 1 m/s 707 mmHg 42%
14:00 +30°C° 0 mm 1 m/s 707 mmHg 40%
15:00 +31°C° 0 mm 1 m/s 706 mmHg 38%
16:00 +29°C° 0 mm 1 m/s 706 mmHg 43%
17:00 +27°C° 0 mm 1 m/s 706 mmHg 48%
18:00 +25°C° 0 mm 1 m/s 706 mmHg 53%
19:00 +25°C° 0 mm 1 m/s 706 mmHg 55%
20:00 +24°C° 0 mm 1 m/s 706 mmHg 57%
21:00 +23°C° 0 mm 1 m/s 706 mmHg 60%
22:00 +22°C° 0 mm 1 m/s 706 mmHg 62%
23:00 +21°C° 0 mm 1 m/s 706 mmHg 65%

17 Avril, Samedi

Heure Température Précipitation Vent Pression Humidité
00:00 +20°C° 0 mm 1 m/s 706 mmHg 68%
01:00 +19°C° 0 mm 1 m/s 706 mmHg 70%
02:00 +19°C° 0 mm 1 m/s 706 mmHg 72%
03:00 +16°C° 0 mm 0 m/s 706 mmHg 74%
04:00 +16°C° 0 mm 0 m/s 706 mmHg 75%
05:00 +16°C° 0 mm 1 m/s 706 mmHg 77%
06:00 +16°C° 0 mm 1 m/s 706 mmHg 79%
07:00 +19°C° 0 mm 1 m/s 707 mmHg 71%
08:00 +22°C° 0 mm 1 m/s 708 mmHg 63%
09:00 +24°C° 0 mm 1 m/s 709 mmHg 55%
10:00 +26°C° 0 mm 1 m/s 708 mmHg 49%
11:00 +28°C° 0 mm 1 m/s 708 mmHg 44%
12:00 +28°C° 0 mm 0 m/s 708 mmHg 38%
13:00 +31°C° 0 mm 1 m/s 707 mmHg 37%
14:00 +31°C° 0 mm 1 m/s 706 mmHg 36%
15:00 +31°C° 0 mm 1 m/s 706 mmHg 35%
16:00 +29°C° 0 mm 1 m/s 706 mmHg 40%
17:00 +27°C° 0 mm 1 m/s 705 mmHg 45%
18:00 +25°C° 0 mm 1 m/s 705 mmHg 50%
19:00 +25°C° 0 mm 1 m/s 705 mmHg 51%
20:00 +24°C° 0 mm 1 m/s 706 mmHg 52%
21:00 +23°C° 0 mm 1 m/s 706 mmHg 53%
22:00 +23°C° 0 mm 1 m/s 706 mmHg 55%
23:00 +22°C° 0 mm 1 m/s 706 mmHg 56%

18 Avril, Dimanche

Heure Température Précipitation Vent Pression Humidité
00:00 +22°C° 0 mm 1 m/s 706 mmHg 58%
01:00 +21°C° 0 mm 1 m/s 705 mmHg 61%
02:00 +18°C° 0 mm 0 m/s 705 mmHg 63%
03:00 +18°C° 0 mm 0 m/s 705 mmHg 66%
04:00 +17°C° 0 mm 0 m/s 705 mmHg 68%
05:00 +17°C° 0 mm 0 m/s 705 mmHg 69%
06:00 +19°C° 0 mm 1 m/s 706 mmHg 71%
07:00 +21°C° 0 mm 1 m/s 706 mmHg 65%
08:00 +23°C° 0 mm 1 m/s 707 mmHg 60%
09:00 +25°C° 0 mm 1 m/s 707 mmHg 55%
10:00 +27°C° 0 mm 1 m/s 707 mmHg 49%
11:00 +29°C° 0 mm 1 m/s 707 mmHg 44%
12:00 +31°C° 0 mm 2 m/s 707 mmHg 39%
13:00 +31°C° 0 mm 1 m/s 706 mmHg 38%
14:00 +32°C° 0 mm 1 m/s 705 mmHg 37%
15:00 +32°C° 0 mm 1 m/s 705 mmHg 36%
16:00 +30°C° 0 mm 1 m/s 704 mmHg 41%
17:00 +28°C° 0 mm 1 m/s 704 mmHg 46%
18:00 +26°C° 0 mm 1 m/s 704 mmHg 52%
19:00 +26°C° 0.1 mm 1 m/s 704 mmHg 55%
20:00 +25°C° 0.1 mm 1 m/s 704 mmHg 58%
21:00 +22°C° 0.1 mm 0 m/s 704 mmHg 61%
22:00 +22°C° 0.1 mm 0 m/s 704 mmHg 63%
23:00 +21°C° 0.1 mm 0 m/s 705 mmHg 65%

19 Avril, Lundi

Heure Température Précipitation Vent Pression Humidité
00:00 +21°C° 0.1 mm 0 m/s 705 mmHg 68%
01:00 +22°C° 0.1 mm 1 m/s 705 mmHg 72%
02:00 +22°C° 0.1 mm 1 m/s 704 mmHg 76%
03:00 +21°C° 0.1 mm 1 m/s 704 mmHg 80%
04:00 +21°C° 0.6 mm 1 m/s 705 mmHg 84%
05:00 +20°C° 0.6 mm 1 m/s 705 mmHg 88%
06:00 +20°C° 0.6 mm 1 m/s 706 mmHg 92%
07:00 +20°C° 1.1 mm 1 m/s 706 mmHg 93%
08:00 +20°C° 1.1 mm 1 m/s 707 mmHg 94%
09:00 +19°C° 1.1 mm 2 m/s 707 mmHg 95%
10:00 +19°C° 0.8 mm 2 m/s 707 mmHg 95%
11:00 +20°C° 0.8 mm 2 m/s 707 mmHg 94%
12:00 +20°C° 0.8 mm 2 m/s 707 mmHg 94%
13:00 +20°C° 0.2 mm 2 m/s 706 mmHg 93%
14:00 +21°C° 0.2 mm 1 m/s 706 mmHg 91%
15:00 +21°C° 0.2 mm 1 m/s 705 mmHg 90%
16:00 +21°C° 0.1 mm 1 m/s 705 mmHg 92%
17:00 +21°C° 0.1 mm 1 m/s 705 mmHg 94%
18:00 +20°C° 0.1 mm 1 m/s 705 mmHg 95%
19:00 +20°C° 0 mm 1 m/s 705 mmHg 95%
20:00 +20°C° 0 mm 1 m/s 706 mmHg 95%
21:00 +20°C° 0 mm 1 m/s 706 mmHg 95%
22:00 +18°C° 0.4 mm 0 m/s 706 mmHg 96%
23:00 +18°C° 0.4 mm 0 m/s 706 mmHg 96%
Voir plus

Nous avons besoin de votre consentement

Meteoprog et ses fournisseurs de services peuvent stocker et accéder à des données personnelles telles que des cookies, des identifiants d'appareils ou d'autres technologies similaires sur votre appareil et traiter ces données pour personnaliser le contenu et les publicités, ainsi que pour fournir des fonctionnalités de médias sociaux et analyser le trafic.

  • Stocker et/ou accéder à des informations sur votre appareil

    Des cookies, des identifiants d'appareils ou d'autres informations peuvent être stockés ou accessibles sur votre appareil aux fins indiquées ci-dessus.

  • Annonces et contenus personnalisés, mesure des annonces et des contenus, connaissance de l'audience et développement de produits

    Les annonces et le contenu peuvent être personnalisés en fonction d'un profil. D'autres données peuvent être ajoutées pour mieux personnaliser les annonces et le contenu. Les performances des publicités et du contenu peuvent être mesurées. Il est possible d'obtenir des informations sur le public qui a vu les publicités et le contenu. Ces données peuvent être utilisées pour développer ou améliorer l'expérience de l'utilisateur, les systèmes et les logiciels.

En cliquant sur "J'accepte", vous autorisez l'utilisation de cookies, des identifiants d'appareils, des balises web ou d'autres technologies similaires. Vos paramètres peuvent être modifiés dans le navigateur de votre appareil.

Dans certains cas, des intérêts légitimes peuvent être invoqués plutôt qu'un consentement. Vous pouvez en savoir plus à ce sujet dans notre Politique de confidentialité et de cookies.